Weather in Novotroitskoye

Russia / Republic of Tatarstan     55°01′07″N   51°27′37″E
temp.,
°C
wind,
m/s
gust,
m/s
humid.,
%
clouds,
%
prec.,
mm/h
press.,
hPa
HPBL,
m
21 january, fri
fri2100:00−11s5129476 0.1 1020300
03:00−14s399781 0.1 1021168
06:00−15s389892 0.0 1021140
09:00−15s3119795 0.1 1022219
12:00−11s4109580 0.0 1021285
15:00−12sse379565 0.1 1022142
18:00−16se369988 0.0 102274
21:00−16se3610088 0.0 102294
22 january, sat
sat2200:00−16se379998 0.0 1022103
03:00−14se41095100 0.0 1021200
06:00−10sse61391100 0.0 1021358
09:00−9sse61491100 0.0 1022418
12:00−7sse61491100 0.1 1022486
15:00−7sse61394100 0.5 1023498
18:00−7sse61393100 0.6 1025486
21:00−8sse51293100 0.7 1025348
23 january, sun
sun2300:00−7sse61495100 0.7 1026442
03:00−7sse51293100 1.8 1027368
06:00−9sse51287100 0.0 1029328
09:00−9sse41086100 0.0 1030298
12:00−8sse4983100 0.0 1032313
15:00−7s3888100 0.1 1033310
18:00−8se3786100 0.1 1035220
21:00−10ese2289100 0.1 103631
24 january, mon
mon2400:00−12se1191100 0.0 103723
03:00−11ese1189100 0.0 103829
06:00−12ese1191100 0.0 103814
09:00−12sse2290100 0.0 103930
12:00−9sse1285100 0.0 103989
15:00−10sse1191100 0.0 103910
18:00−13sse1193100 0.0 103910
21:00−15s119493 0.0 103810
25 january, tue
tue2500:00−16sse119399 0.0 103810
03:00−19s22955 0.0 103810
06:00−21ese11955 0.0 10379
09:00−19sse22925 0.0 103622
12:00−13s23821 0.0 1034101
15:00−15sse22915 0.0 103413
18:00−19s22955 0.0 103313
21:00−20s2295100 0.0 103221